Regional Weather Roundup
Issued by NWS Little Rock, AR

Home | Current Version | Previous Version | Graphics & Text | Print | Product List | Glossary On
Versions: 1 2 3 4 5 6 7 8 9 10 11 12 13 14 15 16 17 18 19 20 21 22 23 24 25 26 27 28 29 30 31 32 33 34 35 36 37 38 39 40 41 42 43 44 45 46 47 48 49 50
000
ASUS44 KLZK 301805
RWRLZK

WEATHER ROUNDUP FOR ARKANSAS
NATIONAL WEATHER SERVICE LITTLE ROCK AR
100 PM CDT SAT MAY 30 2015

NOTE: "FAIR" INDICATES FEW OR NO CLOUDS BELOW 12,000 FEET WITH NO
SIGNIFICANT WEATHER AND/OR OBSTRUCTIONS TO VISIBILITY.

ARZ001-003-010-029-301900-
NORTHWEST ARKANSAS

CITY           SKY/WX    TMP DP  RH WIND       PRES   REMARKS
FAYETTEVILLE   CLOUDY    69  65  86 NW5       30.09S
6HR MIN TEMP:  63; 6HR MAX TEMP:  70;

FORT SMITH     CLOUDY    73  65  75 W6        30.08S
6HR MIN TEMP:  67; 6HR MAX TEMP:  73;

HARRISON       PTSUNNY   75  65  70 W9        30.05S
6HR MIN TEMP:  65; 6HR MAX TEMP:  75; 6HR PCP:  0.08;

BENTONVILLE    CLOUDY    68  63  83 NW9       30.09S
6HR MIN TEMP:  64; 6HR MAX TEMP:  70;

ROGERS         CLOUDY    68  65  90 NW8       30.10R
6HR MIN TEMP:  63; 6HR MAX TEMP:  69;

SILOAM SPGS    CLOUDY    64  59  82 NW12      30.12S
6HR MIN TEMP:  63; 6HR MAX TEMP:  70;

HIGHFILL       CLOUDY    67  65  93 NW12      30.09S
6HR MIN TEMP:  64; 6HR MAX TEMP:  71; 6HR PCP:  0.02;

SPRINGDALE     CLOUDY    70  64  83 W7        30.11R
$$

ARZ004-005-016-301900-
NORTH CENTRAL ARKANSAS

CITY           SKY/WX    TMP DP  RH WIND       PRES   REMARKS
BATESVILLE     CLOUDY    75  66  73 W9        30.00S
6HR MIN TEMP:  68; 6HR MAX TEMP:  75; 6HR PCP:  0.23;

FLIPPIN        PTSUNNY   77  66  69 NW8       30.00S
6HR MIN TEMP:  66; 6HR MAX TEMP:  77; 6HR PCP:  0.01;

MTN HOME       MOSUNNY   75  67  76 VRB3      30.00F
6HR MIN TEMP:  65; 6HR MAX TEMP:  75; 6HR PCP:  0.03;

$$

ARZ040-041-301900-
WEST CENTRAL ARKANSAS

CITY           SKY/WX    TMP DP  RH WIND       PRES   REMARKS
MENA           CLOUDY    75  66  73 NW7       30.10R
MOUNT IDA      PTSUNNY   77  64  64 VRB5      30.05R
6HR MIN TEMP:  68; 6HR MAX TEMP:  78;

$$

ARZ009-017-025-026-028-301900-
NORTHEAST ARKANSAS

CITY           SKY/WX    TMP DP  RH WIND       PRES   REMARKS
CORNING        LGT RAIN  73  73 100 W20G28    29.91R
JONESBORO      CLOUDY    73  70  90 SW18      29.97R
6HR MIN TEMP:  69; 6HR MAX TEMP:  74; 6HR PCP:  0.08;

NEWPORT        LGT RAIN  73  72  97 W13       30.01R
6HR MIN TEMP:  70; 6HR MAX TEMP:  74; 6HR PCP:  0.52;

WALNUT RIDGE   CLOUDY    73  64  73 W17G24    29.97R
6HR MIN TEMP:  70; 6HR MAX TEMP:  75;

BLYTHEVILLE    LGT RAIN  71  69  93 SW17G35   29.97R
6HR MIN TEMP:  71; 6HR MAX TEMP:  79; 6HR PCP:  0.55;

$$

ARZ022-023-033-042-044-301900-
CENTRAL ARKANSAS

CITY           SKY/WX    TMP DP  RH WIND       PRES   REMARKS
LITTLE ROCK    CLOUDY    78  66  66 SW9       30.03S
6HR MIN TEMP:  70; 6HR MAX TEMP:  78; 6HR PCP: TRACE;

N LITTLE ROCK  CLOUDY    76  69  78 W5        30.03S
6HR MIN TEMP:  68; 6HR MAX TEMP:  76;

JACKSONVILLE   PTSUNNY   79  68  69 W10       30.02S
6HR MIN TEMP:  69; 6HR MAX TEMP:  78; 6HR PCP:  0.11;

SEARCY         CLOUDY    77  70  79 W9        30.03S
6HR MIN TEMP:  69; 6HR MAX TEMP:  77; 6HR PCP:  0.47;

HOT SPRINGS    PTSUNNY   77  65  66 VRB6      30.06R
6HR MIN TEMP:  68; 6HR MAX TEMP:  77;

RUSSELLVILLE   PTSUNNY   78  64  61 W10       30.03S
6HR MIN TEMP:  68; 6HR MAX TEMP:  79;

CLINTON        LGT RAIN  77  70  78 SW5       30.03S
$$

ARZ036-301900-
EAST ARKANSAS

CITY           SKY/WX    TMP DP  RH WIND       PRES   REMARKS
WEST MEMPHIS   LGT RAIN  78  71  79 W8G20     30.00R
6HR MIN TEMP:  70; 6HR MAX TEMP:  79; 6HR PCP: TRACE;

$$

ARZ050-053-066-070-073-301900-
SOUTHWEST ARKANSAS

CITY           SKY/WX    TMP DP  RH WIND       PRES   REMARKS
ARKADELPHIA    FAIR      80  71  74 W10       30.06R
6HR MIN TEMP:  70; 6HR MAX TEMP:  80;

CAMDEN         CLOUDY    79  63  57 NE18G26   30.05S
TEXARKANA      LGT RAIN  73  68  84 N3        30.05F
6HR MIN TEMP:  68; 6HR MAX TEMP:  76; 6HR PCP:  0.01;

EL DORADO      RAIN      68  65  90 W8        30.09S FOG
6HR MIN TEMP:  67; 6HR MAX TEMP:  82;

DE QUEEN       CLOUDY    74  68  81 SW7       30.07S
6HR MIN TEMP:  66; 6HR MAX TEMP:  77;

$$

ARZ056-057-069-301900-
SOUTHEAST ARKANSAS

CITY           SKY/WX    TMP DP  RH WIND       PRES   REMARKS
PINE BLUFF     PTSUNNY   80  67  64 SW9       30.03S
6HR MIN TEMP:  71; 6HR MAX TEMP:  81; 6HR PCP: TRACE;

STUTTGART      PTSUNNY   79  70  73 W13       30.03F
6HR MIN TEMP:  72; 6HR MAX TEMP:  79;

MONTICELLO     PTSUNNY   79  69  71 W26G36    30.06R THUNDER
6HR MIN TEMP:  73; 6HR MAX TEMP:  85;


$$




USA.gov is the U.S. government's official web portal to all federal, state and local government web resources and services.